星链-37275(STARLINK-37275)

导读

STARLINK-37275(NORAD编号:68725)是SpaceX星链(Starlink)星座中的一颗低轨互联网通信卫星,归属SpaceX公司的星链全球互联网项目。该项目旨在通过批量部署近地轨道小卫星,为全球未覆盖互联网服务的区域提供低延迟、高速率的网络接入服务。 作为星链批量生产的组网卫星之一,STARLINK-37275运行在近地轨道,配合地面收发设备实现全球网络互联,助力星链完成全球通信覆盖的组网目标,目前可对其轨道进行跟踪监测。

基本信息
目录编号:
68725
目录名称:
STARLINK-37275
国际标识:
2026-081AC
轨道中心:
EARTH
卫星名称:
星链-37275
卫星全名:
星链-37275(STARLINK-37275)
卫星状态:
在轨 (已飞行144 天)
发射日期:
2026-04-14 UTC
国别 :
美国 (US)
星等 :
--
轨道信息
数据来源 国际轨道数据
星历时间: 2026-09-05T09:42:07+0800
9小时前
查看轨道信息
半长轴: 6840.811km
偏心率: 0.0001462
轨道倾角: 53.159°
近地点辐角 71.465°
升交点赤经 277.579°
平近点角 288.651°
近地点: 461.673km
远地点: 463.675km
周期: 93.847分钟
每日圈数: 15.344101
详细信息
固有亮度:
5
最大亮度:
2.5
卫星平台:
Starlink V1.0
覆盖范围:
全球
运营商:
太空探索技术公司
运营商所在国:
美国
制造商(研发单位):
太空探索技术公司
制造商所在国:
美国
使用方式:
暂无
卫星简介
Starlink 计划是 SpaceX 推出的全球卫星互联网项目,通过发射低轨道卫星,为全球尤其是偏远地区提供高速、低延迟的互联网服务。自 2019 年起,Starlink 已部署数千颗卫星,旨在缩小全球数字鸿沟,推动互联网普及。该项目还为军事、航空等行业提供通信支持,带来广泛经济效益。
2D轨道图
3D轨道图
轨道高度分析图
轨道倾角分析图
轨道综合分析图
查看轨道综合分析图
交会数据列表
事件ID 空间交会对象 最接近时刻(TCA) 交会距离 交会风险概率(CRP) 交会风险指数(CRI) 操作
CDM_260907-001006-155106-872521
2026-09-07T
00:10:49+0000
0.441 km
远距离
9.193557E-5 中风险 0.74
CDM_260907-053906-155106-872521
2026-09-07T
05:39:06+0000
0.606 km
远距离
3.776405E-5 中风险 0.67
CDM_260907-014406-155106-872521
2026-09-07T
01:44:37+0000
1.362 km
极远距离
2.593792E-6 低风险 0.43
CDM_260906-082404-377106-872522
OBJECT P (43771)
2026-09-06T
08:24:11+0000
2.039 km
极远距离
1.789617E-6 低风险 0.4
CDM_260907-032905-226306-872521
2026-09-07T
03:29:32+0000
2.679 km
极远距离
1.208156E-6 低风险 0.37
CDM_260907-040506-155106-872521
2026-09-07T
04:05:19+0000
1.850 km
极远距离
1.091749E-6 低风险 0.36
CDM_260907-071206-155106-872521
2026-09-07T
07:12:54+0000
1.948 km
极远距离
9.665958E-7 极低风险 0.35
CDM_260906-223706-155106-872521
2026-09-06T
22:37:02+0000
2.078 km
极远距离
8.377659E-7 极低风险 0.33
CDM_260903-050103-910006-872521
2026-09-03T
05:01:32+0000
2.955 km
极远距离
6.617773E-7 极低风险 0.31